www.pogodaiklimat.ru

Погода и климат >> Архив погоды >> Кувейт >> Абдали


ПОГОДА в Абдали

  • Прогноз погоды в Абдали
  • Монитор погоды в Абдали

АРХИВ ПОГОДЫ в Абдали

Время (UTC), дата Ветер
(напр.,м/с)
 
Видим.   Явления Облачность Т
(С)
Тd
(С)
f
(%)
Тe
(С)
Тes
(С)
Комфортность P
(гПа)
Po
(гПа)
Тmin
(С)
Tmax
(С)
R
(мм)
R24
(мм)
S
(см)
21 12.05 З 3-5
{5}
19 км н/о +28.6 +6.6 25 +28 +28 жарко 1009.4 1001.4 +23.2 +39.7
00 13.05 СЗ 3-5
{7}
19 км н/о +26.4 +4.0 24 +25 +25 комфорт 1008.7 1000.7
03 13.05 СЗ 3-5
{6}
19 км н/о +25.5 +4.2 25 +25 +25 комфорт 1009.7 1001.6 12
06 13.05 С 4-8
{8}
19 км н/о +36.0 +7.1 17 +34 +34 очень
жарко
1009.7 1001.9 279
09 13.05 С 5-9
{9}
9000 м дым н/о +39.4 +9.6 17 +38 +38 очень
жарко
1008.1 1000.4 388
12 13.05 С 5-10
{12}
17 км н/о +41.0 +6.8 13 +39 +39 очень
жарко
1006.1 998.5 303
15 13.05 С 4-8
{11}
20 км н/о +38.7 -0.9 8 +35 +35 очень
жарко
1005.6 997.9 53
18 13.05 СЗ 2-4
{11}
20 км н/о +31.4 -0.9 12 +28 +28 жарко 1006.5 998.6
21 13.05 СЗ 3-4
{4}
20 км н/о +26.8 +0.9 19 +25 +25 комфорт 1006.4 998.4 +24.5 +41.6
00 14.05 СЗ 3-5
{5}
20 км н/о +26.8 +3.8 23 +26 +26 жарко 1005.8 997.8
03 14.05 СЗ 2-4
{6}
19 км н/о +25.7 +3.0 23 +25 +25 комфорт 1006.4 998.4 9
06 14.05 С 4-8
{8}
20 км н/о +38.6 +4.2 12 +36 +36 очень
жарко
1006.8 999.1 299
09 14.05 С 5-12
{12}
19 км н/о +42.7 +5.3 10 +40 +40 очень
жарко
1005.2 997.6 421
12 14.05 С 7-13
{17}
20 км н/о +42.4 +4.8 10 +39 +39 очень
жарко
1003.1 995.5 322
15 14.05 СВ 4-7
{15}
20 км н/о +39.3 -0.4 8 +35 +35 очень
жарко
1003.2 995.5 56
18 14.05 СЗ 3-5
{15}
20 км н/о +31.7 -4.8 9 +28 +28 жарко 1004.7 996.8
21 14.05 С 5-8
{10}
20 км н/о +32.0 +6.4 20 +30 +30 жарко 1004.5 996.7 +25.0 +43.5
00 15.05 СЗ 2-3
{10}
20 км н/о +26.9 +6.7 28 +26 +26 жарко 1004.4 996.4
03 15.05 СЗ 2-2
{4}
13 км н/о +26.1 +7.6 31 +26 +26 жарко 1005.5 997.5 10
06 15.05 С 4-8
{8}
19 км н/о +38.2 +8.3 16 +36 +36 очень
жарко
1005.6 997.9 297
09 15.05 СВ 4-9
{12}
20 км н/о +41.4 +6.8 12 +39 +39 очень
жарко
1004.6 997.0 426
12 15.05 СВ 3-6
{12}
20 км н/о +42.3 +6.6 12 +40 +40 очень
жарко
1002.7 995.1 324
15 15.05 С 3-5
{9}
20 км н/о +39.1 +3.6 11 +36 +36 очень
жарко
1002.3 994.7 56
18 15.05 С 1-3
{9}
20 км н/о +30.0 +6.5 23 +29 +29 жарко 1003.9 996.0
21 15.05 СЗ 2-4
{6}
20 км н/о +28.7 +0.1 16 +26 +26 жарко 1003.9 996.0 +24.0 +43.2
00 16.05 СВ 3-9
{9}
18 км н/о +26.4 +8.8 33 +27 +27 жарко 1003.7 995.7
03 16.05 СЗ 2-3
{5}
18 км н/о +24.0 +6.0 31 +24 +24 комфорт 1004.4 996.3 8
06 16.05 С 2-5
{5}
19 км н/о +38.6 +7.9 16 +37 +37 очень
жарко
1005.0 997.3 281
09 16.05 СЗ 2-4
{6}
20 км н/о +42.7 +7.1 12 +40 +40 очень
жарко
1004.4 996.8 402
12 16.05 В 2-5
{7}
20 км н/о +41.1 +5.8 12 +38 +38 очень
жарко
1002.9 995.3 188
15 16.05 СВ 3-7
{9}
20 км н/о +37.7 +4.8 13 +35 +35 очень
жарко
1002.8 995.1 42
18 16.05 З 2-3
{9}
19 км н/о +30.1 +11.2 31 +30 +30 жарко 1004.6 996.7
21 16.05 ЮЗ 2-3
{4}
20 км н/о +26.3 +9.2 34 +27 +27 жарко 1004.7 996.7 +22.8 +43.8
00 17.05 Ю 2-3
{4}
17 км {туман, дымка} н/о +23.0 +10.5 45 +25 +25 комфорт 1004.5 996.4
03 17.05 С 2-3
{3}
19 км н/о +23.3 +9.0 40 +25 +25 комфорт 1005.6 997.5 10
06 17.05 З 3-6
{7}
20 км н/о +37.0 +4.8 14 +34 +34 очень
жарко
1006.4 998.7 296
09 17.05 ЮЗ 2-4
{7}
18 км н/о +43.2 +4.6 10 +40 +40 очень
жарко
1005.4 997.8 422
12 17.05 Ю 4-9
{11}
15 км н/о +40.8 +15.0 22 +42 +42 опасность
перегрева
1003.3 995.7 295
15 17.05 Ю 2-5
{10}
17 км н/о +34.5 +15.5 32 +36 +36 душно 1003.1 995.3 44
18 17.05 Ю 1-3
{10}
7000 м дымка н/о +27.7 +20.9 67 +35 +35 очень
душно
1004.9 996.9
21 17.05 ЮЗ 1-2
{5}
4300 м дымка н/о +24.6 +21.8 84 +31 +31 очень
душно
1004.8 996.8 +21.2 +44.0
00 18.05 В 1-1
{5}
2200 м дымка н/о +22.4 +20.9 91 +29 +29 очень
душно
1004.4 996.3
03 18.05 ЮВ 2-4
{5}
4100 м дымка н/о +24.7 +22.2 86 +32 +32 очень
душно
1005.1 997.1 13
06 18.05 ЮВ 3-6
{7}
13 км н/о +34.1 +20.6 45 +41 +41 опасность
перегрева
1006.2 998.4 276
09 18.05 Ю 4-9
{10}
18 км н/о +37.8 +16.3 28 +40 +40 очень
душно
1005.4 997.7 391
12 18.05 Ю 3-8
{11}
18 км н/о +36.6 +16.7 31 +39 +39 очень
душно
1004.0 996.3 229
15 18.05 ЮЗ 3-6
{8}
16 км н/о +33.8 +16.2 35 +36 +36 очень
душно
1003.8 996.0 35
18 18.05 Ю 1-3
{8}
9000 м дымка н/о +28.4 +17.2 51 +32 +32 душно 1005.1 997.2
21 18.05 Ю 1-3
{4}
7000 м дымка н/о +25.5 +21.0 76 +32 +32 очень
душно
1005.3 997.3 +22.3 +38.6
00 19.05 С 1-2
{4}
6000 м дымка н/о +24.3 +21.5 84 +31 +31 очень
душно
1005.0 996.9
03 19.05 ЮВ 1-2
{4}
6000 м дымка н/о +25.1 +22.1 83 +32 +32 очень
душно
1005.7 997.7 17
06 19.05 ЮВ 4-7
{9}
5000 м дымка н/о +32.2 +22.8 58 +42 +42 опасность
перегрева
1006.7 998.8 250
09 19.05 Ю 4-8
{9}
4900 м дымка н/о +38.7 +15.9 26 +40 +40 очень
душно
1005.8 998.1 398
12 19.05 Ю 4-10
{11}
8000 м дым н/о +38.8 +13.4 22 +39 +39 очень
жарко
1004.6 996.9 292
15 19.05 Ю 3-7
{13}
16 км н/о +34.4 +14.7 31 +36 +36 душно 1004.8 997.0 50
18 19.05 Ю 3-8
{13}
19 км н/о +29.7 +19.0 53 +35 +35 очень
душно
1007.1 999.2

 

Местоположение метеостанции Абдали (Кувейт): широта 30.08 долгота 47.70 высота над уровнем моря 70 м.

В архиве по умолчанию представлена погода в Абдали за последнюю неделю. Архивные данные за месяц целиком и за предыдущие месяцы, начиная с января 2011 года, Вы можете получить, выбрав интересующий диапазон дат из раскрывающегося списка и нажав кнопку "Ввод!".


*Определитесь, кто Вы:
робот инопланетянин человек

Внимание! Время в таблицах - всемирное. Для получения местного времени необходимо прибавить поправку, которая равна 3 ч.

Смотрите также архив погоды в соседних городах и на ближайших метеорологических станциях:

Погода на Метеостанции Sabriyah (Кувейт) (39 км)
Погода на Метеостанции Mintribah (Кувейт) (43 км)
Погода в Басре аэропорт (Ирак) (50 км)
Погода на Метеостанции Jal Aliyah (Кувейт) (54 км)
Погода в Басре (Ирак) (55 км)
Погода в Абадане (Иран) (62 км)
Погода на Бубияне (Кувейт) (74 км)
Погода в Эль-Фао (Ирак) (78 км)
Погода в Эль-Джахра (Кувейт) (85 км)
Погода Остров Файлака (Кувейт) (88 км)

Пояснения к столбцам:

Ветер - указаны скорость ветра в м/с - средняя за 10 мин, порывы в срок и между сроками (в фигурных скобках) и направление, откуда дует ветер: С - северный, СВ - северо-восточный, В - восточный, ЮВ - юго-восточный, Ю - южный, ЮЗ - юго-западный, З - западный, СЗ - северо-западный.
Видимость - горизонтальная дальность видимости в метрах или километрах. При видимости от 1 до 10 км при отсутствии осадков обычно наблюдается дымка, при ухудшении видимости до 1 км и менее - туман. В сухую погоду видимость может ухудшаться дымом, пылью или мглою.
Явления - указаны атмосферные явления, наблюдавшиеся в срок или в последний час перед сроком; фигурными скобками обозначены явления, наблюдавшиеся между сроками (за 1-3 часа до срока); квадратными скобками обозначены град или гололедные отложения с указанием их диаметра в мм.
Облачность - указаны через наклонную черту общая и нижняя облачность в баллах и высота нижней границы облаков в метрах; квадратными скобками обозначены формы облаков: Ci - перистые, Cs - перисто-слоистые, Cc - перисто-кучевые, Ac - высококучевые, As - высокослоистые, Sc - слоисто-кучевые, Ns - слоисто-дождевые, Cu - кучевые, Cb - кучево-дождевые. Подробнее классификацию облаков см. в Атласе облаков (PDF).
T - Температура воздуха - температура, измеренная на высоте 2 м над землей.
Td - Температура точки росы - температура, при понижении до которой содержащийся в воздухе водяной пар достигнет насыщения.
f - Относительная влажность воздуха - влажноcть воздуха, измеренная на высоте 2 м над землей.
Te - Эффективная температура - температура, которую ощущает одетый по сезону человек в тени. Характеристика душности погоды. При расчете учитывается влияние влажности воздуха и скорости ветра на теплоощущения человека.
Tes - Эффективная температура на солнце - температура, которую ощущает человек, с поправкой на солнечный нагрев. Характеристика знойности погоды. Зависит от высоты солнца над горизонтом, облачности и скорости ветра. Ночью, в пасмурную погоду, а также при ветре 12 м/с и более поправка равна нулю.
P - Атмосферное давление - приведенное к уровню моря атмосферное давление.
Po - Атмосферное давление - измеренное на уровне метеостанции атмосферное давление.
Tmin - Минимальная температура - минимум температуры воздуха на высоте 2 м над землей.
Tmax - Максимальная температура - максимум температуры воздуха на высоте 2 м над землей.
R - Количество осадков - Количество выпавших осадков за период времени, мм. При наведении курсора мыши на число - период времени, за который выпало указанное количество осадков.
R24 - Количество осадков - Количество выпавших осадков за 24 часа, мм.
S - Снежный покров - Высота снежного покрова, см. При наведении курсора мыши на число - состояние снежного покрова и степень покрытия местности в баллах.